When you browse on this site, cookies collect data to enhance your experience and personalize the content and advertising you see.
Visit our Privacy Policy to learn more. By continuing to use the site, you agree to this use of cookies and data.
  • In United Kingdom
  • List of Countries
  • For 7 days
  • Water Temperature
  • Weather Map
  • Weather Widgets
  • user-avatar
    Login

    Hourly Weather Pudsey

    Today, 5 April, Sunday

    Time Temperature Precipitation Wind Pressure Humidity
    00:00 +5°C° 0 mm 3 mps 749 mmHg 81%
    01:00 +5°C° 0 mm 3 mps 748 mmHg 81%
    02:00 +5°C° 0 mm 2 mps 748 mmHg 82%
    03:00 +5°C° 0 mm 2 mps 748 mmHg 83%
    04:00 +5°C° 0 mm 2 mps 747 mmHg 84%
    05:00 +5°C° 0 mm 2 mps 747 mmHg 85%
    06:00 +5°C° 0 mm 2 mps 747 mmHg 85%
    07:00 +6°C° 0 mm 4 mps 747 mmHg 78%
    08:00 +8°C° 0 mm 5 mps 746 mmHg 70%
    09:00 +10°C° 0 mm 6 mps 746 mmHg 63%
    10:00 +11°C° 0 mm 6 mps 745 mmHg 61%
    11:00 +14°C° 0 mm 7 mps 745 mmHg 58%
    12:00 +15°C° 0 mm 7 mps 745 mmHg 56%
    13:00 +15°C° 0 mm 7 mps 744 mmHg 56%
    14:00 +16°C° 0 mm 7 mps 743 mmHg 56%
    15:00 +16°C° 0 mm 7 mps 743 mmHg 56%
    16:00 +15°C° 0 mm 7 mps 742 mmHg 58%
    17:00 +15°C° 0 mm 6 mps 742 mmHg 61%
    18:00 +14°C° 0 mm 6 mps 742 mmHg 64%
    19:00 +13°C° 0 mm 6 mps 742 mmHg 68%
    20:00 +12°C° 0 mm 5 mps 742 mmHg 72%
    21:00 +12°C° 0 mm 5 mps 742 mmHg 76%
    22:00 +12°C° 0 mm 5 mps 741 mmHg 78%
    23:00 +12°C° 0 mm 5 mps 741 mmHg 79%

    Tomorrow, 6 April, Monday

    Time Temperature Precipitation Wind Pressure Humidity
    00:00 +10°C° 0 mm 5 mps 740 mmHg 81%
    01:00 +11°C° 0 mm 6 mps 740 mmHg 81%
    02:00 +11°C° 0 mm 6 mps 740 mmHg 81%
    03:00 +11°C° 0 mm 7 mps 740 mmHg 80%
    04:00 +10°C° 0.1 mm 6 mps 741 mmHg 79%
    05:00 +9°C° 0.1 mm 6 mps 742 mmHg 78%
    06:00 +8°C° 0.1 mm 5 mps 743 mmHg 76%
    07:00 +9°C° 0 mm 6 mps 744 mmHg 73%
    08:00 +10°C° 0 mm 6 mps 745 mmHg 69%
    09:00 +10°C° 0 mm 7 mps 746 mmHg 65%
    10:00 +10°C° 0.1 mm 7 mps 747 mmHg 61%
    11:00 +11°C° 0.1 mm 7 mps 748 mmHg 57%
    12:00 +11°C° 0.1 mm 7 mps 748 mmHg 54%
    13:00 +11°C° 0 mm 7 mps 749 mmHg 52%
    14:00 +11°C° 0 mm 6 mps 750 mmHg 51%
    15:00 +11°C° 0 mm 6 mps 751 mmHg 49%
    16:00 +10°C° 0 mm 5 mps 751 mmHg 53%
    17:00 +10°C° 0 mm 4 mps 752 mmHg 57%
    18:00 +9°C° 0 mm 3 mps 753 mmHg 60%
    19:00 +8°C° 0 mm 3 mps 754 mmHg 63%
    20:00 +7°C° 0 mm 2 mps 755 mmHg 66%
    21:00 +6°C° 0 mm 2 mps 756 mmHg 69%
    22:00 +7°C° 0 mm 1 mps 756 mmHg 71%
    23:00 +7°C° 0 mm 1 mps 757 mmHg 73%

    Day after tomorrow, 7 April, Tuesday

    Time Temperature Precipitation Wind Pressure Humidity
    00:00 +6°C° 0 mm 1 mps 757 mmHg 75%
    01:00 +6°C° 0 mm 1 mps 757 mmHg 76%
    02:00 +6°C° 0 mm 1 mps 758 mmHg 77%
    03:00 +5°C° 0 mm 0 mps 758 mmHg 78%
    04:00 +6°C° 0 mm 1 mps 758 mmHg 78%
    05:00 +6°C° 0 mm 1 mps 758 mmHg 77%
    06:00 +6°C° 0 mm 1 mps 759 mmHg 77%
    07:00 +6°C° 0 mm 2 mps 759 mmHg 71%
    08:00 +8°C° 0 mm 2 mps 759 mmHg 65%
    09:00 +10°C° 0 mm 3 mps 759 mmHg 59%
    10:00 +11°C° 0 mm 3 mps 759 mmHg 57%
    11:00 +12°C° 0 mm 3 mps 759 mmHg 55%
    12:00 +13°C° 0 mm 4 mps 759 mmHg 53%
    13:00 +14°C° 0 mm 4 mps 759 mmHg 53%
    14:00 +14°C° 0 mm 4 mps 758 mmHg 53%
    15:00 +15°C° 0 mm 4 mps 758 mmHg 53%
    16:00 +14°C° 0 mm 3 mps 758 mmHg 58%
    17:00 +13°C° 0 mm 3 mps 757 mmHg 62%
    18:00 +13°C° 0 mm 2 mps 757 mmHg 66%
    19:00 +12°C° 0 mm 2 mps 758 mmHg 70%
    20:00 +10°C° 0 mm 2 mps 758 mmHg 73%
    21:00 +9°C° 0 mm 2 mps 758 mmHg 77%
    22:00 +10°C° 0 mm 1 mps 758 mmHg 78%
    23:00 +9°C° 0 mm 1 mps 758 mmHg 80%

    8 April, Wednesday

    Time Temperature Precipitation Wind Pressure Humidity
    00:00 +9°C° 0 mm 1 mps 758 mmHg 81%
    01:00 +8°C° 0 mm 1 mps 757 mmHg 81%
    02:00 +8°C° 0 mm 1 mps 757 mmHg 81%
    03:00 +8°C° 0 mm 1 mps 757 mmHg 81%
    04:00 +8°C° 0 mm 1 mps 757 mmHg 81%
    05:00 +8°C° 0 mm 1 mps 757 mmHg 82%
    06:00 +8°C° 0 mm 1 mps 757 mmHg 82%
    07:00 +10°C° 0 mm 1 mps 757 mmHg 76%
    08:00 +11°C° 0 mm 1 mps 757 mmHg 69%
    09:00 +13°C° 0 mm 1 mps 757 mmHg 63%
    10:00 +14°C° 0 mm 1 mps 757 mmHg 58%
    11:00 +16°C° 0 mm 2 mps 756 mmHg 54%
    12:00 +17°C° 0 mm 2 mps 756 mmHg 49%
    13:00 +17°C° 0 mm 2 mps 756 mmHg 48%
    14:00 +17°C° 0 mm 2 mps 756 mmHg 47%
    15:00 +18°C° 0 mm 2 mps 755 mmHg 47%
    16:00 +17°C° 0 mm 2 mps 755 mmHg 52%
    17:00 +16°C° 0 mm 2 mps 755 mmHg 58%
    18:00 +15°C° 0 mm 2 mps 755 mmHg 63%
    19:00 +13°C° 0 mm 1 mps 755 mmHg 67%
    20:00 +12°C° 0 mm 1 mps 755 mmHg 71%
    21:00 +11°C° 0 mm 1 mps 755 mmHg 75%
    22:00 +9°C° 0 mm 0 mps 755 mmHg 76%
    23:00 +9°C° 0 mm 0 mps 755 mmHg 78%

    9 April, Thursday

    Time Temperature Precipitation Wind Pressure Humidity
    00:00 +8°C° 0 mm 0 mps 755 mmHg 79%
    01:00 +8°C° 0 mm 0 mps 755 mmHg 80%
    02:00 +8°C° 0 mm 0 mps 755 mmHg 81%
    03:00 +7°C° 0 mm 0 mps 754 mmHg 82%
    04:00 +7°C° 0 mm 0 mps 754 mmHg 82%
    05:00 +7°C° 0 mm 0 mps 754 mmHg 83%
    06:00 +7°C° 0 mm 0 mps 754 mmHg 83%
    07:00 +9°C° 0 mm 0 mps 755 mmHg 77%
    08:00 +12°C° 0 mm 1 mps 755 mmHg 72%
    09:00 +14°C° 0 mm 1 mps 755 mmHg 66%
    10:00 +15°C° 0 mm 1 mps 755 mmHg 64%
    11:00 +16°C° 0 mm 1 mps 755 mmHg 62%
    12:00 +17°C° 0 mm 2 mps 755 mmHg 60%
    13:00 +17°C° 0.1 mm 2 mps 754 mmHg 60%
    14:00 +18°C° 0.1 mm 2 mps 754 mmHg 61%
    15:00 +18°C° 0.1 mm 2 mps 754 mmHg 61%
    16:00 +17°C° 0.1 mm 2 mps 753 mmHg 66%
    17:00 +16°C° 0.1 mm 2 mps 753 mmHg 70%
    18:00 +16°C° 0.1 mm 3 mps 753 mmHg 75%
    19:00 +14°C° 0 mm 2 mps 753 mmHg 80%
    20:00 +13°C° 0 mm 2 mps 753 mmHg 84%
    21:00 +12°C° 0 mm 2 mps 753 mmHg 89%
    22:00 +10°C° 0 mm 2 mps 753 mmHg 90%
    23:00 +11°C° 0 mm 1 mps 753 mmHg 91%

    10 April, Friday

    Time Temperature Precipitation Wind Pressure Humidity
    00:00 +11°C° 0 mm 1 mps 753 mmHg 92%
    01:00 +10°C° 0 mm 1 mps 753 mmHg 93%
    02:00 +10°C° 0 mm 1 mps 752 mmHg 93%
    03:00 +10°C° 0 mm 1 mps 752 mmHg 93%
    04:00 +10°C° 0 mm 1 mps 752 mmHg 91%
    05:00 +11°C° 0 mm 1 mps 752 mmHg 90%
    06:00 +10°C° 0 mm 2 mps 752 mmHg 88%
    07:00 +12°C° 0 mm 2 mps 752 mmHg 82%
    08:00 +14°C° 0 mm 2 mps 752 mmHg 76%
    09:00 +16°C° 0 mm 3 mps 752 mmHg 70%
    10:00 +16°C° 0.2 mm 3 mps 752 mmHg 69%
    11:00 +17°C° 0.2 mm 4 mps 751 mmHg 68%
    12:00 +17°C° 0.2 mm 4 mps 751 mmHg 68%
    13:00 +17°C° 0.1 mm 4 mps 751 mmHg 67%
    14:00 +18°C° 0.1 mm 4 mps 751 mmHg 66%
    15:00 +17°C° 0.1 mm 5 mps 751 mmHg 66%
    16:00 +17°C° 0 mm 4 mps 751 mmHg 71%
    17:00 +15°C° 0 mm 4 mps 751 mmHg 76%
    18:00 +13°C° 0 mm 4 mps 751 mmHg 81%
    19:00 +12°C° 0 mm 4 mps 751 mmHg 83%
    20:00 +11°C° 0 mm 3 mps 752 mmHg 85%
    21:00 +10°C° 0 mm 3 mps 752 mmHg 87%
    22:00 +10°C° 0 mm 3 mps 752 mmHg 87%
    23:00 +9°C° 0 mm 3 mps 752 mmHg 87%
    Show more